sat.trackr.live / text

‹ back to catalog

STARLINK-30900

NORAD 58423 · 2023-180X

PAYLOAD ACTIVE UNKNOWN

§ Identity

Operator
Country
US
Launch date
2023-11-22
Launch site
AFETR
Launch vehicle
Mass (kg)
RCS (m²)

Purposes: comms

External: N2YO · Heavens-Above · Gunter

§ Orbital elements

Epoch: 2026-05-24T23:17:33.981216Z

Period
94.27 min
Inclination
43.0054°
Eccentricity
0.0001527
Mean motion
15.27577569 rev/d
Perigee alt
482.0 km
Apogee alt
484.1 km
Semi-major
6,861.2 km
B*
-5.5340e-6
RAAN
341.5739°
Arg perigee
277.6037°
Mean anomaly
82.4641°
Rev number
13,918

§ Raw data

STARLINK-309001 58423U 23180X   26144.97053219 -.00000415  00000+0 -55340-5 0  99922 58423  43.0054 341.5739 0001527 277.6037  82.4641 15.27577569139180

JSON: /api/v1/satellites/58423 · /tle

For live sub-satellite position, see the globe view (requires WebGL).

§ Visibility from observer

Set your observer location to see the next 7 days of passes ≥ 10°. The values pass through the URL so the page stays shareable.

No JS? Fill the form by hand. The geolocation button needs JavaScript.